| time (UTC) | temp C | wind direction | speed KPH | gust KPH | rain 1hr cm | rain 24hr cm | rain mn cm | humidity % | barometer mb |
| 20260504195004 | 22 | 292 | 4.8 | 22.5 | 0.00 | 0.00 | 0.00 | 33 | 991.3 |
| 20260504194504 | 21 | 246 | 4.8 | 16.1 | 0.00 | 0.00 | 0.00 | 34 | 991.2 |
| 20260504194004 | 21 | 244 | 4.8 | 19.3 | 0.00 | 0.00 | 0.00 | 32 | 991.5 |
| 20260504193004 | 22 | 129 | 4.8 | 19.3 | 0.00 | 0.00 | 0.00 | 32 | 991.3 |
| 20260504192504 | 21 | 243 | 6.4 | 14.5 | 0.00 | 0.00 | 0.00 | 34 | 991.2 |
| 20260504192005 | 21 | 263 | 6.4 | 20.9 | 0.00 | 0.00 | 0.00 | 33 | 991.1 |
| 20260504191503 | 21 | 219 | 8.0 | 19.3 | 0.00 | 0.00 | 0.00 | 32 | 991.3 |
| 20260504191004 | 21 | 286 | 4.8 | 14.5 | 0.00 | 0.00 | 0.00 | 33 | 991.4 |
| 20260504190504 | 21 | 252 | 6.4 | 20.9 | 0.00 | 0.00 | 0.00 | 32 | 991.4 |
| 20260504190004 | 21 | 184 | 8.0 | 22.5 | 0.00 | 0.00 | 0.00 | 33 | 991.5 |
| 20260504185004 | 21 | 213 | 9.7 | 22.5 | 0.00 | 0.00 | 0.00 | 32 | 991.5 |
| 20260504184504 | 21 | 215 | 4.8 | 19.3 | 0.00 | 0.00 | 0.00 | 34 | 991.5 |
| 20260504183504 | 21 | 293 | 6.4 | 25.7 | 0.00 | 0.00 | 0.00 | 33 | 991.5 |
| 20260504183004 | 21 | 321 | 4.8 | 16.1 | 0.00 | 0.00 | 0.00 | 34 | 991.6 |
| 20260504182504 | 21 | 195 | 4.8 | 22.5 | 0.00 | 0.00 | 0.00 | 33 | 991.7 |
| 20260504182004 | 21 | 317 | 4.8 | 19.3 | 0.00 | 0.00 | 0.00 | 35 | 991.9 |
| 20260504181504 | 21 | 136 | 3.2 | 16.1 | 0.00 | 0.00 | 0.00 | 36 | 991.9 |
| 20260504181004 | 20 | 248 | 4.8 | 25.7 | 0.00 | 0.00 | 0.00 | 35 | 992.0 |
| 20260504180504 | 20 | 185 | 6.4 | 16.1 | 0.00 | 0.00 | 0.00 | 34 | 991.9 |
| 20260504180004 | 21 | 263 | 4.8 | 12.9 | 0.00 | 0.00 | 0.00 | 34 | 991.9 |
| 20260504175504 | 20 | 201 | 4.8 | 24.1 | 0.00 | 0.00 | 0.00 | 34 | 992.1 |
| 20260504175004 | 20 | 132 | 4.8 | 19.3 | 0.00 | 0.00 | 0.00 | 36 | 992.1 |
| 20260504174504 | 20 | 234 | 8.0 | 24.1 | 0.00 | 0.00 | 0.00 | 33 | 992.3 |
| 20260504174004 | 20 | 239 | 6.4 | 19.3 | 0.00 | 0.00 | 0.00 | 34 | 992.1 |
| 20260504173504 | 20 | 234 | 4.8 | 22.5 | 0.00 | 0.00 | 0.00 | 33 | 992.2 |
| 20260504173003 | 20 | 208 | 6.4 | 22.5 | 0.00 | 0.00 | 0.00 | 34 | 992.4 |
| 20260504171504 | 20 | 258 | 8.0 | 16.1 | 0.00 | 0.00 | 0.00 | 32 | 992.6 |
| 20260504171004 | 20 | 228 | 8.0 | 22.5 | 0.00 | 0.00 | 0.00 | 33 | 992.5 |
| 20260504170504 | 20 | 286 | 6.4 | 14.5 | 0.00 | 0.00 | 0.00 | 31 | 992.5 |
| 20260504141004 | 16 | 105 | 4.8 | 16.1 | 0.00 | 0.00 | 0.00 | 40 | 994.3 |
| 20260504130504 | 14 | 248 | 3.2 | 16.1 | 0.00 | 0.00 | 0.00 | 46 | 994.8 |
| 20260504110504 | 8 | 243 | 0.0 | 3.2 | 0.00 | 0.00 | 0.00 | 59 | 995.0 |
| 20260504100504 | 6 | 201 | 0.0 | 3.2 | 0.00 | 0.00 | 0.00 | 64 | 994.5 |
| 20260504082004 | 7 | 238 | 1.6 | 9.7 | 0.00 | 0.00 | 0.00 | 59 | 993.9 |
| 20260504081504 | 7 | 290 | 0.0 | 3.2 | 0.00 | 0.00 | 0.00 | 60 | 993.9 |
| 20260504081004 | 6 | 220 | 0.0 | 3.2 | 0.00 | 0.00 | 0.00 | 62 | 993.9 |
| 20260504080504 | 6 | 214 | 0.0 | 1.6 | 0.00 | 0.00 | 0.00 | 62 | 993.8 |
| 20260504050504 | 1 | 320 | 0.0 | 0.0 | 0.00 | 0.00 | 0.00 | 86 | 994.0 |
| 20260504050004 | 1 | 320 | 0.0 | 0.0 | 0.00 | 0.00 | 0.00 | 87 | 994.3 |
| 20260504045004 | 1 | 320 | 0.0 | 0.0 | 0.00 | 0.00 | 0.00 | 86 | 994.2 |
| 20260504044504 | 1 | 320 | 0.0 | 0.0 | 0.00 | 0.00 | 0.00 | 86 | 994.2 |
| 20260504044003 | 1 | 320 | 0.0 | 0.0 | 0.00 | 0.00 | 0.00 | 86 | 994.3 |
| 20260504043504 | 1 | 320 | 0.0 | 0.0 | 0.00 | 0.00 | 0.00 | 85 | 994.1 |
| 20260504043004 | 1 | 320 | 0.0 | 0.0 | 0.00 | 0.00 | 0.00 | 85 | 994.2 |
| 20260504042504 | 1 | 320 | 0.0 | 0.0 | 0.00 | 0.00 | 0.00 | 84 | 994.4 |
| 20260504042004 | 1 | 320 | 0.0 | 0.0 | 0.00 | 0.00 | 0.00 | 84 | 994.3 |
| 20260504041004 | 1 | 320 | 0.0 | 0.0 | 0.00 | 0.00 | 0.00 | 84 | 994.1 |
| 20260504040504 | 1 | 320 | 0.0 | 0.0 | 0.00 | 0.00 | 0.00 | 83 | 994.2 |
| 20260504040004 | 1 | 320 | 0.0 | 0.0 | 0.00 | 0.00 | 0.00 | 84 | 994.1 |
| 20260504035504 | 1 | 320 | 0.0 | 0.0 | 0.00 | 0.00 | 0.00 | 84 | 994.1 |
| 20260504035004 | 1 | 320 | 0.0 | 0.0 | 0.00 | 0.00 | 0.00 | 84 | 994.0 |
| 20260504034504 | 1 | 320 | 0.0 | 0.0 | 0.00 | 0.00 | 0.00 | 84 | 993.9 |
| 20260504034004 | 2 | 320 | 0.0 | 0.0 | 0.00 | 0.00 | 0.00 | 84 | 993.9 |
| 20260504033504 | 1 | 320 | 0.0 | 0.0 | 0.00 | 0.00 | 0.00 | 84 | 994.0 |
| 20260504033004 | 1 | 320 | 0.0 | 0.0 | 0.00 | 0.00 | 0.00 | 82 | 993.9 |
| 20260504032504 | 2 | 320 | 0.0 | 0.0 | 0.00 | 0.00 | 0.00 | 82 | 994.0 |
| 20260504032004 | 2 | 320 | 0.0 | 0.0 | 0.00 | 0.00 | 0.00 | 81 | 993.9 |
| 20260504031504 | 2 | 320 | 0.0 | 0.0 | 0.00 | 0.00 | 0.00 | 81 | 993.9 |
| 20260504031004 | 2 | 320 | 0.0 | 0.0 | 0.00 | 0.00 | 0.00 | 81 | 994.0 |
| 20260504030504 | 2 | 320 | 0.0 | 0.0 | 0.00 | 0.00 | 0.00 | 81 | 993.9 |
| 20260504030004 | 2 | 320 | 0.0 | 0.0 | 0.00 | 0.00 | 0.00 | 81 | 994.0 |
| 20260504025504 | 2 | 320 | 0.0 | 0.0 | 0.00 | 0.00 | 0.00 | 81 | 994.0 |
| 20260504025005 | 2 | 320 | 0.0 | 0.0 | 0.00 | 0.00 | 0.00 | 80 | 993.9 |
| 20260504024504 | 2 | 320 | 0.0 | 0.0 | 0.00 | 0.00 | 0.00 | 80 | 993.7 |
| 20260504024004 | 2 | 320 | 0.0 | 0.0 | 0.00 | 0.00 | 0.00 | 79 | 993.7 |
| 20260504023503 | 2 | 320 | 0.0 | 0.0 | 0.00 | 0.00 | 0.00 | 78 | 993.8 |
| 20260504022004 | 3 | 320 | 0.0 | 0.0 | 0.00 | 0.00 | 0.00 | 76 | 993.8 |
| 20260504021504 | 3 | 320 | 0.0 | 0.0 | 0.00 | 0.00 | 0.00 | 76 | 993.7 |
| 20260504021004 | 3 | 320 | 0.0 | 0.0 | 0.00 | 0.00 | 0.00 | 75 | 993.8 |
| 20260504020504 | 2 | 320 | 0.0 | 0.0 | 0.00 | 0.00 | 0.00 | 75 | 993.7 |
| 20260504020004 | 2 | 320 | 0.0 | 0.0 | 0.00 | 0.00 | 0.00 | 75 | 993.6 |
| 20260504015504 | 3 | 320 | 0.0 | 0.0 | 0.00 | 0.00 | 0.00 | 74 | 993.6 |
| 20260504015005 | 3 | 320 | 0.0 | 0.0 | 0.00 | 0.00 | 0.00 | 73 | 993.8 |
| 20260504014504 | 3 | 320 | 0.0 | 0.0 | 0.00 | 0.00 | 0.00 | 74 | 993.5 |
| 20260504013504 | 3 | 320 | 0.0 | 0.0 | 0.00 | 0.00 | 0.00 | 73 | 993.4 |
| 20260504011503 | 4 | 320 | 0.0 | 0.0 | 0.00 | 0.00 | 0.00 | 67 | 993.3 |
| 20260504011004 | 4 | 320 | 0.0 | 0.0 | 0.00 | 0.00 | 0.00 | 66 | 993.3 |
| 20260504010504 | 4 | 320 | 0.0 | 0.0 | 0.00 | 0.00 | 0.00 | 65 | 993.4 |
| 20260504010004 | 4 | 320 | 0.0 | 0.0 | 0.00 | 0.00 | 0.00 | 64 | 993.1 |
| 20260504005504 | 4 | 320 | 0.0 | 0.0 | 0.00 | 0.00 | 0.00 | 62 | 992.9 |
| 20260504005004 | 5 | 320 | 0.0 | 0.0 | 0.00 | 0.00 | 0.00 | 61 | 992.7 |
| 20260504004504 | 4 | 320 | 0.0 | 0.0 | 0.00 | 0.00 | 0.00 | 61 | 992.8 |
| 20260504004004 | 4 | 320 | 0.0 | 0.0 | 0.00 | 0.00 | 0.00 | 62 | 992.8 |
| 20260504003004 | 5 | 320 | 0.0 | 0.0 | 0.00 | 0.00 | 0.00 | 60 | 992.5 |
| 20260504002504 | 5 | 320 | 0.0 | 0.0 | 0.00 | 0.00 | 0.00 | 59 | 992.5 |
| 20260504002004 | 5 | 320 | 0.0 | 0.0 | 0.00 | 0.00 | 0.00 | 58 | 992.4 |
| 20260504001504 | 6 | 320 | 0.0 | 0.0 | 0.00 | 0.00 | 0.00 | 57 | 992.3 |
| 20260504001004 | 6 | 320 | 0.0 | 0.0 | 0.00 | 0.00 | 0.00 | 54 | 992.2 |
| 20260504000504 | 7 | 320 | 0.0 | 0.0 | 0.00 | 0.00 | 0.00 | 51 | 992.1 |
| 20260504000004 | 7 | 320 | 0.0 | 0.0 | 0.00 | 0.00 | 0.00 | 49 | 992.3 |
| 20260503235504 | 8 | 320 | 0.0 | 0.0 | 0.00 | 0.00 | 0.00 | 48 | 992.1 |
| 20260503235004 | 8 | 320 | 0.0 | 0.0 | 0.00 | 0.00 | 0.00 | 46 | 992.1 |
| 20260503234504 | 8 | 357 | 0.0 | 0.0 | 0.00 | 0.00 | 0.00 | 43 | 992.2 |
| 20260503234004 | 9 | 2 | 0.0 | 0.0 | 0.00 | 0.00 | 0.00 | 42 | 991.9 |
| 20260503233504 | 9 | 2 | 1.6 | 3.2 | 0.00 | 0.00 | 0.00 | 42 | 992.0 |
| 20260503233004 | 9 | 260 | 1.6 | 3.2 | 0.00 | 0.00 | 0.00 | 42 | 992.0 |
| 20260503232004 | 10 | 180 | 1.6 | 4.8 | 0.00 | 0.00 | 0.00 | 41 | 991.9 |
| 20260503231004 | 10 | 70 | 0.0 | 1.6 | 0.00 | 0.00 | 0.00 | 42 | 992.0 |
| 20260503230503 | 10 | 213 | 1.6 | 3.2 | 0.00 | 0.00 | 0.00 | 41 | 991.9 |
| 20260503225004 | 10 | 25 | 1.6 | 16.1 | 0.00 | 0.00 | 0.00 | 40 | 991.9 |
| 20260503224503 | 10 | 316 | 1.6 | 4.8 | 0.00 | 0.00 | 0.00 | 40 | 991.8 |
| 20260503224004 | 10 | 256 | 1.6 | 4.8 | 0.00 | 0.00 | 0.00 | 40 | 991.6 |
| 20260503223504 | 11 | 19 | 1.6 | 3.2 | 0.00 | 0.00 | 0.00 | 40 | 991.6 |
| 20260503223004 | 11 | 48 | 1.6 | 3.2 | 0.00 | 0.00 | 0.00 | 39 | 991.6 |
| 20260503222504 | 11 | 99 | 0.0 | 4.8 | 0.00 | 0.00 | 0.00 | 40 | 991.7 |
| 20260503222004 | 11 | 338 | 1.6 | 8.0 | 0.00 | 0.00 | 0.00 | 39 | 991.5 |
| 20260503221504 | 11 | 23 | 1.6 | 11.3 | 0.00 | 0.00 | 0.00 | 40 | 991.7 |
| 20260503221004 | 11 | 330 | 3.2 | 8.0 | 0.00 | 0.00 | 0.00 | 39 | 991.7 |
| 20260503220504 | 11 | 268 | 3.2 | 4.8 | 0.00 | 0.00 | 0.00 | 40 | 991.7 |
| 20260503220004 | 11 | 19 | 3.2 | 8.0 | 0.00 | 0.00 | 0.00 | 41 | 991.7 |
| 20260503215504 | 11 | 352 | 3.2 | 9.7 | 0.00 | 0.00 | 0.00 | 40 | 991.8 |
| 20260503215004 | 11 | 29 | 3.2 | 9.7 | 0.00 | 0.00 | 0.00 | 40 | 991.7 |
| 20260503214504 | 11 | 0 | 3.2 | 14.5 | 0.00 | 0.00 | 0.00 | 41 | 991.7 |
| 20260503214004 | 11 | 349 | 3.2 | 9.7 | 0.00 | 0.00 | 0.00 | 40 | 991.6 |
| 20260503213504 | 11 | 290 | 1.6 | 11.3 | 0.00 | 0.00 | 0.00 | 41 | 991.7 |
| 20260503213004 | 11 | 347 | 4.8 | 11.3 | 0.00 | 0.00 | 0.00 | 39 | 991.4 |
| 20260503212504 | 12 | 338 | 3.2 | 16.1 | 0.00 | 0.00 | 0.00 | 39 | 991.5 |
| 20260503212004 | 12 | 349 | 1.6 | 8.0 | 0.00 | 0.00 | 0.00 | 39 | 991.6 |
| 20260503211504 | 11 | 313 | 1.6 | 11.3 | 0.00 | 0.00 | 0.00 | 38 | 991.6 |
| 20260503211004 | 12 | 44 | 3.2 | 12.9 | 0.00 | 0.00 | 0.00 | 39 | 991.5 |
| 20260503210503 | 11 | 329 | 3.2 | 9.7 | 0.00 | 0.00 | 0.00 | 39 | 991.4 |
| 20260503210005 | 11 | 329 | 3.2 | 14.5 | 0.00 | 0.00 | 0.00 | 40 | 991.3 |
| 20260503205004 | 10 | 23 | 3.2 | 16.1 | 0.00 | 0.00 | 0.00 | 43 | 991.4 |
| 20260503204504 | 10 | 0 | 4.8 | 14.5 | 0.00 | 0.00 | 0.00 | 40 | 991.3 |
| 20260503204004 | 11 | 357 | 3.2 | 14.5 | 0.00 | 0.00 | 0.00 | 41 | 991.0 |
| 20260503203504 | 11 | 330 | 3.2 | 9.7 | 0.00 | 0.00 | 0.00 | 41 | 991.1 |
| 20260503203004 | 11 | 355 | 3.2 | 8.0 | 0.00 | 0.00 | 0.00 | 40 | 991.3 |
| 20260503202504 | 11 | 38 | 1.6 | 14.5 | 0.00 | 0.00 | 0.00 | 40 | 991.2 |
| 20260503201504 | 10 | 330 | 1.6 | 12.9 | 0.00 | 0.00 | 0.00 | 42 | 991.2 |
| 20260503201003 | 11 | 6 | 3.2 | 16.1 | 0.00 | 0.00 | 0.00 | 40 | 991.1 |
| 20260503200002 | 11 | 7 | 4.8 | 9.7 | 0.00 | 0.00 | 0.00 | 40 | 991.1 |